Location: Carson
(33.8314°N, 118.2820°W)
Time: 13:44:55
(UTC+00:00)

ERS-2 - Pass Details

Date: 23 November 2020
Orbit: 492 x 498 km, 98.6° (Epoch: 22 January)

Event Time Altitude Azimuth Distance (km) Brightness Sun altitude
Rises 12:39:57 0° 160° (SSE) 2,556 6.1 -23.3°
Reaches altitude 10° 12:42:01 10° 158° (SSE) 1,679 5.2 -22.9°
Maximum altitude 12:45:36 67° 76° (ENE) 539 2.3 -22.1°
Enters shadow 12:46:32 45° 12° (NNE) 684 2.7 -22.0°
